Total_Precipitation_Accumulation
0.20 0.19 0.20 0.27 0.23 0.16 0.10 0.05 0.03 0.03 0.04 0.04 0.04 0.04 0.04 0.06 0.06 0.10 0.09 0.09 0.09 0.11 0.25 0.53 0.80 0.94 1.04 1.02 0.92 0.83 0.79 0.79 0.87 0.94 0.94 0.95 1.03 1.07 1.14 1.16 1.12 1.06 1.06 1.09 1.13 1.17 1.14 1.06 0.95
0.23 0.28 0.32 0.32 0.23 0.15 0.09 0.05 0.02 0.02 0.03 0.03 0.03 0.03 0.03 0.04 0.04 0.06 0.10 0.14 0.12 0.13 0.23 0.42 0.76 0.94 1.01 1.02 0.96 0.94 0.95 0.95 1.01 1.05 1.03 0.97 1.03 1.12 1.21 1.16 1.14 1.11 1.09 1.05 1.01 0.99 0.99 0.85 0.73
0.35 0.43 0.41 0.33 0.18 0.11 0.07 0.04 0.02 0.02 0.02 0.03 0.03 0.03 0.04 0.05 0.05 0.07 0.11 0.16 0.16 0.18 0.26 0.49 0.82 1.02 1.06 1.10 1.04 1.03 1.06 1.11 1.13 1.15 1.16 1.14 1.15 1.17 1.25 1.26 1.23 1.16 1.10 1.04 0.99 0.90 0.86 0.80 0.73
0.50 0.54 0.45 0.30 0.11 0.06 0.05 0.04 0.02 0.02 0.02 0.02 0.02 0.03 0.04 0.05 0.05 0.09 0.13 0.21 0.23 0.26 0.32 0.56 0.87 1.08 1.13 1.18 1.17 1.18 1.21 1.22 1.23 1.20 1.20 1.24 1.33 1.31 1.27 1.26 1.31 1.27 1.11 1.04 1.00 0.91 0.86 0.78 0.74
0.66 0.58 0.43 0.23 0.07 0.03 0.03 0.03 0.02 0.02 0.02 0.03 0.03 0.03 0.05 0.05 0.07 0.12 0.18 0.27 0.32 0.36 0.42 0.62 0.93 1.15 1.27 1.32 1.34 1.39 1.43 1.44 1.39 1.32 1.26 1.27 1.31 1.35 1.29 1.19 1.19 1.16 1.10 1.05 1.01 0.92 0.87 0.85 0.79
0.75 0.60 0.37 0.16 0.06 0.04 0.03 0.02 0.02 0.02 0.03 0.04 0.05 0.04 0.07 0.09 0.12 0.16 0.18 0.26 0.35 0.43 0.54 0.77 1.13 1.30 1.38 1.43 1.41 1.50 1.58 1.64 1.62 1.52 1.40 1.35 1.36 1.35 1.31 1.18 1.13 1.12 1.08 1.01 0.98 0.94 0.87 0.83 0.79
0.79 0.57 0.29 0.13 0.08 0.07 0.05 0.03 0.02 0.02 0.03 0.05 0.06 0.07 0.10 0.16 0.20 0.20 0.23 0.29 0.38 0.50 0.67 0.91 1.22 1.42 1.62 1.62 1.53 1.53 1.57 1.69 1.70 1.62 1.50 1.38 1.34 1.33 1.28 1.25 1.15 1.13 1.14 1.07 0.96 0.91 0.92 0.80 0.73
0.83 0.72 0.37 0.16 0.11 0.09 0.09 0.08 0.04 0.03 0.03 0.04 0.06 0.09 0.11 0.19 0.24 0.30 0.35 0.40 0.52 0.64 0.83 1.04 1.28 1.45 1.58 1.68 1.63 1.55 1.56 1.65 1.80 1.76 1.60 1.45 1.42 1.42 1.34 1.23 1.25 1.19 1.15 1.13 1.02 0.92 0.97 0.92 0.74
0.97 0.92 0.49 0.20 0.14 0.12 0.10 0.11 0.07 0.05 0.05 0.07 0.07 0.09 0.12 0.21 0.30 0.42 0.54 0.61 0.70 0.84 1.03 1.18 1.33 1.50 1.63 1.74 1.67 1.67 1.66 1.71 1.82 1.84 1.80 1.67 1.54 1.50 1.41 1.24 1.25 1.28 1.24 1.16 1.11 1.02 1.00 0.97 0.79
1.03 0.86 0.43 0.21 0.19 0.17 0.13 0.13 0.11 0.10 0.09 0.09 0.11 0.14 0.20 0.32 0.44 0.49 0.54 0.62 0.72 0.87 1.09 1.26 1.37 1.55 1.76 1.86 1.88 1.95 1.81 1.71 1.75 1.70 1.75 1.75 1.66 1.64 1.50 1.45 1.36 1.32 1.33 1.31 1.25 1.16 1.11 1.00 0.84
0.84 0.60 0.35 0.24 0.26 0.25 0.20 0.16 0.14 0.15 0.12 0.11 0.14 0.19 0.27 0.39 0.50 0.54 0.56 0.64 0.73 0.90 1.11 1.33 1.48 1.67 1.87 1.91 1.90 1.92 1.89 1.77 1.78 1.75 1.73 1.76 1.80 1.70 1.69 1.62 1.63 1.58 1.49 1.46 1.44 1.39 1.22 1.08 0.97
0.73 0.47 0.33 0.28 0.29 0.33 0.31 0.25 0.21 0.17 0.13 0.12 0.17 0.23 0.31 0.42 0.51 0.56 0.66 0.76 0.86 1.00 1.16 1.37 1.59 1.83 2.00 2.04 2.05 1.95 1.84 1.74 1.68 1.75 1.79 1.79 1.74 1.64 1.52 1.45 1.41 1.43 1.39 1.43 1.47 1.45 1.32 1.20 1.10
0.70 0.50 0.36 0.30 0.30 0.34 0.36 0.32 0.26 0.19 0.14 0.16 0.20 0.28 0.35 0.42 0.49 0.63 0.79 0.89 0.98 1.05 1.19 1.35 1.58 1.82 2.05 2.31 2.30 2.21 2.05 1.86 1.77 1.79 1.81 1.76 1.72 1.66 1.55 1.41 1.41 1.35 1.27 1.28 1.34 1.27 1.18 1.14 1.05
0.63 0.52 0.42 0.35 0.32 0.33 0.39 0.35 0.32 0.24 0.23 0.24 0.28 0.31 0.38 0.46 0.56 0.72 0.86 0.96 1.02 1.10 1.25 1.41 1.59 1.79 2.03 2.30 2.42 2.36 2.28 2.17 2.07 1.93 1.86 1.82 1.79 1.72 1.67 1.53 1.45 1.41 1.32 1.27 1.25 1.22 1.14 1.06 0.96
0.63 0.69 0.56 0.42 0.35 0.35 0.42 0.45 0.39 0.31 0.31 0.31 0.32 0.33 0.40 0.51 0.56 0.67 0.79 0.98 1.14 1.19 1.32 1.51 1.69 1.90 2.02 2.19 2.48 2.55 2.51 2.40 2.31 2.11 2.05 2.06 1.98 1.92 1.88 1.76 1.58 1.47 1.41 1.39 1.35 1.29 1.27 1.15 1.01
0.88 0.98 0.81 0.47 0.37 0.39 0.57 0.57 0.36 0.36 0.41 0.39 0.37 0.38 0.47 0.57 0.61 0.68 0.77 0.99 1.26 1.33 1.40 1.65 1.81 2.01 2.08 2.11 2.40 2.55 2.62 2.67 2.59 2.45 2.31 2.28 2.27 2.19 2.09 2.00 1.84 1.67 1.52 1.44 1.41 1.30 1.26 1.21 1.11
1.25 1.10 0.76 0.50 0.40 0.46 0.59 0.59 0.41 0.39 0.49 0.50 0.46 0.44 0.50 0.62 0.66 0.72 0.80 0.95 1.15 1.28 1.48 1.78 1.91 2.02 2.17 2.18 2.31 2.57 2.62 2.66 2.72 2.76 2.67 2.56 2.52 2.46 2.36 2.21 2.11 2.03 1.85 1.64 1.49 1.38 1.26 1.18 1.14
1.21 0.88 0.62 0.52 0.44 0.48 0.56 0.52 0.42 0.42 0.51 0.51 0.50 0.48 0.50 0.59 0.63 0.73 0.84 0.99 1.13 1.28 1.51 1.84 2.09 2.17 2.28 2.40 2.41 2.55 2.76 2.67 2.57 2.63 2.67 2.70 2.77 2.71 2.64 2.50 2.31 2.30 2.19 2.00 1.76 1.57 1.40 1.26 1.18
0.87 0.84 0.65 0.48 0.46 0.52 0.54 0.53 0.49 0.42 0.43 0.43 0.40 0.44 0.52 0.56 0.61 0.73 0.85 1.04 1.18 1.34 1.50 1.75 2.03 2.19 2.27 2.35 2.32 2.22 2.38 2.54 2.45 2.33 2.43 2.60 2.75 2.90 2.90 2.72 2.57 2.47 2.34 2.08 1.92 1.83 1.69 1.50 1.34
0.92 0.92 0.70 0.51 0.49 0.60 0.60 0.58 0.47 0.41 0.43 0.40 0.38 0.43 0.52 0.57 0.64 0.73 0.83 1.01 1.13 1.32 1.43 1.63 1.92 2.13 2.12 2.10 2.15 2.11 2.16 2.30 2.43 2.38 2.36 2.46 2.66 2.88 3.08 2.95 2.76 2.62 2.51 2.37 2.13 1.97 1.90 1.79 1.56
0.95 0.83 0.67 0.64 0.64 0.70 0.77 0.73 0.46 0.40 0.41 0.41 0.42 0.45 0.52 0.56 0.62 0.69 0.78 0.93 1.09 1.30 1.42 1.45 1.71 2.09 2.18 2.18 2.33 2.35 2.40 2.45 2.51 2.47 2.41 2.42 2.48 2.61 2.72 2.78 2.66 2.65 2.58 2.49 2.32 2.12 2.01 2.00 1.82
0.92 0.53 0.57 0.70 0.95 0.98 0.85 1.05 0.57 0.41 0.41 0.40 0.45 0.52 0.54 0.57 0.61 0.69 0.75 0.91 1.02 1.22 1.50 1.57 1.63 1.94 2.23 2.29 2.31 2.27 2.26 2.24 2.25 2.23 2.25 2.38 2.52 2.58 2.59 2.65 2.66 2.48 2.39 2.33 2.29 2.21 2.07 2.07 2.05
0.73 0.49 0.60 0.82 1.11 1.14 0.84 1.05 0.66 0.40 0.45 0.40 0.41 0.48 0.50 0.55 0.65 0.71 0.77 0.92 1.06 1.25 1.51 1.69 1.77 1.84 2.09 2.21 2.18 2.17 2.15 2.13 2.22 2.24 2.22 2.30 2.47 2.64 2.71 2.63 2.63 2.62 2.43 2.25 2.19 2.19 2.15 2.09 2.03
0.70 0.80 0.98 1.15 1.60 1.66 0.69 0.72 0.70 0.59 0.60 0.47 0.41 0.46 0.48 0.55 0.68 0.73 0.81 0.98 1.15 1.31 1.52 1.71 1.87 1.80 1.91 2.21 2.24 2.08 2.02 2.01 2.10 2.22 2.29 2.33 2.39 2.47 2.59 2.64 2.54 2.50 2.48 2.39 2.20 2.15 2.18 2.11 2.03
1.08 1.60 2.38 2.47 2.27 1.30 0.40 0.48 0.68 0.57 0.55 0.50 0.47 0.50 0.49 0.53 0.66 0.74 0.83 1.00 1.09 1.23 1.40 1.61 1.77 1.80 1.82 2.04 2.22 2.11 1.95 1.93 1.92 2.02 2.11 2.18 2.23 2.27 2.33 2.43 2.45 2.37 2.33 2.35 2.31 2.19 2.15 2.13 2.10
1.11 1.38 1.88 1.80 1.14 0.58 0.36 0.51 0.59 0.47 0.40 0.40 0.40 0.46 0.47 0.48 0.55 0.67 0.77 0.92 1.04 1.08 1.21 1.42 1.64 1.69 1.71 1.89 2.15 2.20 2.07 2.04 1.94 1.93 2.00 2.04 2.02 2.00 2.03 2.13 2.20 2.16 2.10 2.15 2.25 2.22 2.10 2.07 2.09
1.03 1.07 1.00 1.42 0.95 0.67 0.53 0.47 0.46 0.33 0.30 0.33 0.35 0.39 0.44 0.47 0.52 0.60 0.71 0.78 0.86 0.99 1.09 1.24 1.50 1.67 1.68 1.73 1.97 2.25 2.25 2.15 2.07 1.97 1.99 2.04 2.00 1.97 1.99 2.01 2.03 1.98 1.94 1.95 2.02 2.07 1.99 1.96 1.96
0.89 1.00 1.26 1.81 1.51 0.91 0.55 0.48 0.62 0.49 0.43 0.39 0.39 0.41 0.41 0.45 0.54 0.60 0.66 0.70 0.78 0.90 1.00 1.11 1.34 1.57 1.67 1.69 1.79 2.00 2.26 2.23 2.16 2.16 2.05 2.04 2.03 2.01 2.00 2.00 1.98 1.92 1.83 1.86 1.88 1.83 1.76 1.80 1.81
0.94 1.20 1.49 1.65 1.34 1.15 0.78 0.66 0.69 0.60 0.51 0.46 0.43 0.41 0.40 0.43 0.51 0.57 0.60 0.69 0.76 0.86 1.00 1.09 1.21 1.39 1.55 1.59 1.63 1.74 1.96 2.18 2.22 2.16 2.05 1.96 1.99 1.98 1.91 1.88 1.92 1.92 1.84 1.78 1.83 1.78 1.67 1.69 1.69
0.81 1.00 1.29 1.75 1.32 0.92 0.89 0.73 0.48 0.41 0.44 0.42 0.40 0.39 0.39 0.43 0.47 0.53 0.58 0.67 0.72 0.82 0.96 1.05 1.13 1.28 1.42 1.53 1.58 1.66 1.73 1.90 2.14 2.07 1.92 1.80 1.82 1.90 1.89 1.80 1.81 1.86 1.88 1.84 1.81 1.76 1.64 1.59 1.59